contact:dominique.lefevre@mio.osupytheas.fr, maurice.libes@osupytheas.fr, didier.mallarino@osupytheas.fr
Project:EMSO http://www.emso-fr.org/EMSO-France
Depth: 2436.0 m
Title:EMSO Ligure Ouest : Data MII capteur CSTAR
DateTime,Latitude,Longitude,Instrument_Serial,Reference_Counts,Signal_Counts,Corrected_Signal_raw_counts,Calculated_Beam_c_inverse_meters,Internal_thermistor_counts
DateTime,Latitude,Longitude,Instrument_Serial,Reference_Counts,Signal_Counts,Corrected_Signal_raw_counts,Calculated_Beam_c_inverse_meters,Internal_thermistor_counts
2021-11-29T00:02:26,42.805,6.029,CST-1368DR,5058,6584,13920,0.460,551
2021-11-29T00:05:27,42.805,6.029,CST-1368DR,5058,6585,13921,0.460,551
2021-11-29T00:08:29,42.805,6.029,CST-1368DR,5058,6586,13924,0.459,551
2021-11-29T00:11:31,42.805,6.029,CST-1368DR,5058,6585,13922,0.459,550
2021-11-29T00:14:32,42.805,6.029,CST-1368DR,5058,6585,13921,0.460,551
2021-11-29T00:17:34,42.805,6.029,CST-1368DR,5058,6584,13920,0.460,551
2021-11-29T00:20:35,42.805,6.029,CST-1368DR,5058,6585,13922,0.459,551
2021-11-29T00:23:37,42.805,6.029,CST-1368DR,5058,6585,13921,0.460,551
2021-11-29T00:26:39,42.805,6.029,CST-1368DR,5058,6584,13920,0.460,551
2021-11-29T00:29:40,42.805,6.029,CST-1368DR,5058,6585,13923,0.459,551
2021-11-29T00:32:42,42.805,6.029,CST-1368DR,5058,6585,13921,0.460,551
2021-11-29T00:35:43,42.805,6.029,CST-1368DR,5058,6585,13922,0.459,551
2021-11-29T00:38:45,42.805,6.029,CST-1368DR,5058,6584,13920,0.460,551
2021-11-29T00:41:46,42.805,6.029,CST-1368DR,5058,6585,13922,0.459,551
2021-11-29T00:44:48,42.805,6.029,CST-1368DR,5058,6585,13922,0.459,551
2021-11-29T00:47:50,42.805,6.029,CST-1368DR,5058,6584,13919,0.460,551
2021-11-29T00:50:51,42.805,6.029,CST-1368DR,5058,6585,13921,0.460,551
2021-11-29T00:53:53,42.805,6.029,CST-1368DR,5058,6585,13921,0.460,551
2021-11-29T00:56:54,42.805,6.029,CST-1368DR,5058,6585,13921,0.460,551
2021-11-29T00:59:56,42.805,6.029,CST-1368DR,5058,6585,13922,0.459,551
2021-11-29T01:02:58,42.805,6.029,CST-1368DR,5058,6585,13921,0.460,551
2021-11-29T01:05:59,42.805,6.029,CST-1368DR,5058,6584,13919,0.460,551
2021-11-29T01:09:01,42.805,6.029,CST-1368DR,5058,6584,13919,0.460,550
2021-11-29T01:12:02,42.805,6.029,CST-1368DR,5058,6584,13919,0.460,551
2021-11-29T01:15:04,42.805,6.029,CST-1368DR,5058,6583,13918,0.460,551
2021-11-29T01:18:05,42.805,6.029,CST-1368DR,5057,6585,13924,0.459,551
2021-11-29T01:21:07,42.805,6.029,CST-1368DR,5058,6585,13921,0.460,551
2021-11-29T01:24:09,42.805,6.029,CST-1368DR,5058,6585,13921,0.460,551
2021-11-29T01:27:10,42.805,6.029,CST-1368DR,5058,6584,13920,0.460,551
2021-11-29T01:30:12,42.805,6.029,CST-1368DR,5057,6584,13923,0.459,551
2021-11-29T01:33:13,42.805,6.029,CST-1368DR,5058,6584,13919,0.460,551
2021-11-29T01:36:15,42.805,6.029,CST-1368DR,5057,6585,13924,0.459,551
2021-11-29T01:39:17,42.805,6.029,CST-1368DR,5058,6585,13921,0.460,551
2021-11-29T01:42:18,42.805,6.029,CST-1368DR,5057,6584,13922,0.459,551
2021-11-29T01:45:20,42.805,6.029,CST-1368DR,5057,6582,13918,0.460,551
2021-11-29T01:48:21,42.805,6.029,CST-1368DR,5057,6585,13924,0.459,551
2021-11-29T01:51:23,42.805,6.029,CST-1368DR,5057,6583,13920,0.460,551
2021-11-29T01:54:24,42.805,6.029,CST-1368DR,5057,6585,13925,0.458,551
2021-11-29T01:57:26,42.805,6.029,CST-1368DR,5057,6584,13921,0.460,551
2021-11-29T02:00:28,42.805,6.029,CST-1368DR,5057,6585,13924,0.459,551
2021-11-29T02:03:29,42.805,6.029,CST-1368DR,5057,6585,13924,0.459,551
2021-11-29T02:06:31,42.805,6.029,CST-1368DR,5057,6584,13923,0.459,551
2021-11-29T02:09:32,42.805,6.029,CST-1368DR,5057,6583,13920,0.460,551
2021-11-29T02:12:34,42.805,6.029,CST-1368DR,5057,6583,13919,0.460,551
2021-11-29T02:15:35,42.805,6.029,CST-1368DR,5057,6585,13925,0.458,551
2021-11-29T02:18:37,42.805,6.029,CST-1368DR,5057,6583,13919,0.460,551
2021-11-29T02:21:39,42.805,6.029,CST-1368DR,5057,6585,13924,0.459,551
2021-11-29T02:24:40,42.805,6.029,CST-1368DR,5057,6584,13921,0.460,551
2021-11-29T02:27:42,42.805,6.029,CST-1368DR,5057,6584,13922,0.459,551
2021-11-29T02:30:43,42.805,6.029,CST-1368DR,5057,6585,13924,0.459,551
2021-11-29T02:33:45,42.805,6.029,CST-1368DR,5057,6585,13924,0.459,551
2021-11-29T02:36:47,42.805,6.029,CST-1368DR,5057,6584,13923,0.459,551
2021-11-29T02:39:48,42.805,6.029,CST-1368DR,5057,6583,13920,0.460,551
2021-11-29T02:42:50,42.805,6.029,CST-1368DR,5057,6585,13924,0.459,551
2021-11-29T02:45:51,42.805,6.029,CST-1368DR,5057,6584,13922,0.459,551
2021-11-29T02:48:53,42.805,6.029,CST-1368DR,5057,6584,13922,0.459,551
2021-11-29T02:51:54,42.805,6.029,CST-1368DR,5057,6584,13922,0.459,551
2021-11-29T02:54:56,42.805,6.029,CST-1368DR,5057,6584,13923,0.459,551
2021-11-29T02:57:58,42.805,6.029,CST-1368DR,5057,6583,13921,0.460,551
2021-11-29T03:00:59,42.805,6.029,CST-1368DR,5057,6584,13921,0.460,551
2021-11-29T03:04:01,42.805,6.029,CST-1368DR,5057,6584,13921,0.460,551
2021-11-29T03:07:02,42.805,6.029,CST-1368DR,5057,6585,13924,0.459,551
2021-11-29T03:10:04,42.805,6.029,CST-1368DR,5057,6584,13923,0.459,551
2021-11-29T03:13:05,42.805,6.029,CST-1368DR,5057,6584,13921,0.460,551
2021-11-29T03:16:07,42.805,6.029,CST-1368DR,5057,6582,13919,0.460,551
2021-11-29T03:19:09,42.805,6.029,CST-1368DR,5057,6584,13922,0.459,551
2021-11-29T03:22:10,42.805,6.029,CST-1368DR,5057,6585,13924,0.459,551
2021-11-29T03:25:12,42.805,6.029,CST-1368DR,5057,6584,13923,0.459,551
2021-11-29T03:28:13,42.805,6.029,CST-1368DR,5057,6584,13922,0.459,551
2021-11-29T03:31:15,42.805,6.029,CST-1368DR,5057,6584,13921,0.460,551
2021-11-29T03:34:17,42.805,6.029,CST-1368DR,5057,6585,13924,0.459,551
2021-11-29T03:37:18,42.805,6.029,CST-1368DR,5057,6583,13921,0.460,551
2021-11-29T03:40:20,42.805,6.029,CST-1368DR,5057,6583,13920,0.460,550
2021-11-29T03:43:21,42.805,6.029,CST-1368DR,5057,6584,13922,0.459,551
2021-11-29T03:46:23,42.805,6.029,CST-1368DR,5057,6584,13923,0.459,551
2021-11-29T03:49:24,42.805,6.029,CST-1368DR,5057,6583,13919,0.460,551
2021-11-29T03:52:26,42.805,6.029,CST-1368DR,5057,6584,13922,0.459,551
2021-11-29T03:55:28,42.805,6.029,CST-1368DR,5057,6584,13922,0.459,551
2021-11-29T03:58:29,42.805,6.029,CST-1368DR,5057,6584,13923,0.459,551
2021-11-29T04:01:31,42.805,6.029,CST-1368DR,5057,6584,13922,0.459,551
2021-11-29T04:04:32,42.805,6.029,CST-1368DR,5057,6585,13924,0.459,551
2021-11-29T04:07:34,42.805,6.029,CST-1368DR,5057,6584,13923,0.459,551
2021-11-29T04:10:36,42.805,6.029,CST-1368DR,5057,6584,13923,0.459,551
2021-11-29T04:13:37,42.805,6.029,CST-1368DR,5057,6584,13923,0.459,551
2021-11-29T04:16:39,42.805,6.029,CST-1368DR,5057,6584,13923,0.459,551
2021-11-29T04:19:40,42.805,6.029,CST-1368DR,5057,6585,13924,0.459,551
2021-11-29T04:22:42,42.805,6.029,CST-1368DR,5057,6584,13923,0.459,551
2021-11-29T04:25:43,42.805,6.029,CST-1368DR,5057,6583,13921,0.460,551
2021-11-29T04:28:45,42.805,6.029,CST-1368DR,5057,6585,13924,0.459,551
2021-11-29T04:31:47,42.805,6.029,CST-1368DR,5057,6583,13921,0.460,551
2021-11-29T04:34:48,42.805,6.029,CST-1368DR,5057,6583,13921,0.460,550
2021-11-29T04:37:50,42.805,6.029,CST-1368DR,5057,6583,13920,0.460,551
2021-11-29T04:40:51,42.805,6.029,CST-1368DR,5057,6584,13922,0.459,550
2021-11-29T04:43:53,42.805,6.029,CST-1368DR,5057,6583,13921,0.460,551
2021-11-29T04:46:54,42.805,6.029,CST-1368DR,5057,6585,13924,0.459,551
2021-11-29T04:49:56,42.805,6.029,CST-1368DR,5057,6584,13922,0.459,551
2021-11-29T04:52:58,42.805,6.029,CST-1368DR,5057,6584,13921,0.460,551
2021-11-29T04:55:59,42.805,6.029,CST-1368DR,5057,6583,13920,0.460,551
2021-11-29T04:59:01,42.805,6.029,CST-1368DR,5057,6584,13922,0.459,551
2021-11-29T05:02:02,42.805,6.029,CST-1368DR,5057,6583,13921,0.460,551
2021-11-29T05:05:04,42.805,6.029,CST-1368DR,5057,6584,13921,0.460,551
2021-11-29T05:08:06,42.805,6.029,CST-1368DR,5057,6582,13918,0.460,551
2021-11-29T05:11:07,42.805,6.029,CST-1368DR,5057,6584,13921,0.460,551
2021-11-29T05:14:09,42.805,6.029,CST-1368DR,5057,6583,13919,0.460,551
2021-11-29T05:17:10,42.805,6.029,CST-1368DR,5057,6583,13920,0.460,551
2021-11-29T05:20:12,42.805,6.029,CST-1368DR,5057,6583,13919,0.460,551
2021-11-29T05:23:13,42.805,6.029,CST-1368DR,5057,6585,13924,0.459,551
2021-11-29T05:26:15,42.805,6.029,CST-1368DR,5057,6584,13921,0.460,551
2021-11-29T05:29:17,42.805,6.029,CST-1368DR,5057,6583,13920,0.460,551
2021-11-29T05:32:18,42.805,6.029,CST-1368DR,5057,6583,13920,0.460,551
2021-11-29T05:35:20,42.805,6.029,CST-1368DR,5057,6581,13917,0.461,551
2021-11-29T05:38:21,42.805,6.029,CST-1368DR,5057,6581,13916,0.461,551
2021-11-29T05:41:23,42.805,6.029,CST-1368DR,5057,6583,13919,0.460,551
2021-11-29T05:44:25,42.805,6.029,CST-1368DR,5057,6583,13920,0.460,551
2021-11-29T05:47:26,42.805,6.029,CST-1368DR,5057,6583,13921,0.460,551
2021-11-29T05:50:28,42.805,6.029,CST-1368DR,5057,6583,13920,0.460,551
2021-11-29T05:53:29,42.805,6.029,CST-1368DR,5057,6583,13920,0.460,551
2021-11-29T05:56:31,42.805,6.029,CST-1368DR,5057,6583,13920,0.460,551
2021-11-29T05:59:32,42.805,6.029,CST-1368DR,5057,6583,13919,0.460,551
2021-11-29T06:02:34,42.805,6.029,CST-1368DR,5057,6583,13920,0.460,551
2021-11-29T06:05:36,42.805,6.029,CST-1368DR,5057,6583,13920,0.460,551
2021-11-29T06:08:37,42.805,6.029,CST-1368DR,5057,6583,13919,0.460,551
2021-11-29T06:11:39,42.805,6.029,CST-1368DR,5057,6583,13919,0.460,551
2021-11-29T06:14:40,42.805,6.029,CST-1368DR,5057,6583,13921,0.460,551
2021-11-29T06:17:42,42.805,6.029,CST-1368DR,5057,6583,13919,0.460,551
2021-11-29T06:20:43,42.805,6.029,CST-1368DR,5057,6583,13920,0.460,551
2021-11-29T06:23:45,42.805,6.029,CST-1368DR,5057,6583,13921,0.460,551
2021-11-29T06:26:47,42.805,6.029,CST-1368DR,5057,6579,13912,0.462,551
2021-11-29T06:29:48,42.805,6.029,CST-1368DR,5057,6583,13919,0.460,551
2021-11-29T06:32:50,42.805,6.029,CST-1368DR,5057,6583,13920,0.460,551
2021-11-29T06:35:51,42.805,6.029,CST-1368DR,5057,6582,13919,0.460,551
2021-11-29T06:38:53,42.805,6.029,CST-1368DR,5057,6582,13918,0.460,551
2021-11-29T06:41:55,42.805,6.029,CST-1368DR,5057,6583,13920,0.460,551
2021-11-29T06:44:56,42.805,6.029,CST-1368DR,5057,6583,13920,0.460,551
2021-11-29T06:47:58,42.805,6.029,CST-1368DR,5057,6583,13919,0.460,551
2021-11-29T06:50:59,42.805,6.029,CST-1368DR,5057,6583,13919,0.460,551
2021-11-29T06:54:01,42.805,6.029,CST-1368DR,5057,6582,13918,0.460,551
2021-11-29T06:57:02,42.805,6.029,CST-1368DR,5057,6582,13919,0.460,551
2021-11-29T07:00:04,42.805,6.029,CST-1368DR,5057,6582,13919,0.460,551
2021-11-29T07:03:06,42.805,6.029,CST-1368DR,5057,6583,13920,0.460,551
2021-11-29T07:06:07,42.805,6.029,CST-1368DR,5057,6583,13919,0.460,551
2021-11-29T07:09:09,42.805,6.029,CST-1368DR,5057,6583,13919,0.460,551
2021-11-29T07:12:10,42.805,6.029,CST-1368DR,5057,6582,13918,0.460,551
2021-11-29T07:15:12,42.805,6.029,CST-1368DR,5057,6576,13906,0.464,551
2021-11-29T07:18:14,42.805,6.029,CST-1368DR,5057,6582,13918,0.460,551
2021-11-29T07:21:15,42.805,6.029,CST-1368DR,5057,6583,13920,0.460,551
2021-11-29T07:24:17,42.805,6.029,CST-1368DR,5057,6583,13920,0.460,551
2021-11-29T07:27:18,42.805,6.029,CST-1368DR,5057,6581,13916,0.461,551
2021-11-29T07:30:20,42.805,6.029,CST-1368DR,5057,6583,13919,0.460,550
2021-11-29T07:33:21,42.805,6.029,CST-1368DR,5057,6582,13917,0.461,551
2021-11-29T07:36:23,42.805,6.029,CST-1368DR,5057,6582,13918,0.460,551
2021-11-29T07:39:25,42.805,6.029,CST-1368DR,5057,6582,13919,0.460,551
2021-11-29T07:42:26,42.805,6.029,CST-1368DR,5057,6579,13912,0.462,551
2021-11-29T07:45:28,42.805,6.029,CST-1368DR,5057,6583,13919,0.460,551
2021-11-29T07:48:29,42.805,6.029,CST-1368DR,5057,6582,13918,0.460,551
2021-11-29T07:51:31,42.805,6.029,CST-1368DR,5057,6582,13919,0.460,551
2021-11-29T07:54:32,42.805,6.029,CST-1368DR,5057,6583,13919,0.460,551
2021-11-29T07:57:34,42.805,6.029,CST-1368DR,5057,6583,13920,0.460,551
2021-11-29T08:00:36,42.805,6.029,CST-1368DR,5057,6583,13920,0.460,551
2021-11-29T08:03:37,42.805,6.029,CST-1368DR,5057,6582,13918,0.460,551
2021-11-29T08:06:39,42.805,6.029,CST-1368DR,5057,6579,13911,0.462,551
2021-11-29T08:09:40,42.805,6.029,CST-1368DR,5057,6582,13918,0.460,551
2021-11-29T08:12:42,42.805,6.029,CST-1368DR,5057,6583,13920,0.460,551
2021-11-29T08:15:44,42.805,6.029,CST-1368DR,5057,6583,13919,0.460,551
2021-11-29T08:18:45,42.805,6.029,CST-1368DR,5057,6582,13919,0.460,551
2021-11-29T08:21:47,42.805,6.029,CST-1368DR,5057,6582,13917,0.461,551
2021-11-29T08:24:48,42.805,6.029,CST-1368DR,5057,6583,13920,0.460,551
2021-11-29T08:27:50,42.805,6.029,CST-1368DR,5057,6582,13918,0.460,551
2021-11-29T08:30:51,42.805,6.029,CST-1368DR,5057,6583,13919,0.460,551
2021-11-29T08:33:53,42.805,6.029,CST-1368DR,5057,6583,13920,0.460,551
2021-11-29T08:36:55,42.805,6.029,CST-1368DR,5057,6582,13918,0.460,551
2021-11-29T08:39:56,42.805,6.029,CST-1368DR,5057,6582,13919,0.460,551
2021-11-29T08:42:58,42.805,6.029,CST-1368DR,5057,6583,13920,0.460,551
2021-11-29T08:45:59,42.805,6.029,CST-1368DR,5057,6584,13921,0.460,551
2021-11-29T08:49:01,42.805,6.029,CST-1368DR,5057,6581,13917,0.461,551
2021-11-29T08:52:03,42.805,6.029,CST-1368DR,5057,6583,13920,0.460,551
2021-11-29T08:55:04,42.805,6.029,CST-1368DR,5057,6583,13920,0.460,551
2021-11-29T08:58:06,42.805,6.029,CST-1368DR,5057,6583,13920,0.460,551
2021-11-29T09:01:07,42.805,6.029,CST-1368DR,5057,6582,13918,0.460,551
2021-11-29T09:04:09,42.805,6.029,CST-1368DR,5057,6582,13918,0.460,551
2021-11-29T09:07:10,42.805,6.029,CST-1368DR,5057,6583,13920,0.460,551
2021-11-29T09:10:12,42.805,6.029,CST-1368DR,5057,6582,13919,0.460,551
2021-11-29T09:13:14,42.805,6.029,CST-1368DR,5057,6582,13918,0.460,551
2021-11-29T09:16:15,42.805,6.029,CST-1368DR,5057,6582,13918,0.460,551
2021-11-29T09:19:17,42.805,6.029,CST-1368DR,5057,6583,13919,0.460,551
2021-11-29T09:22:18,42.805,6.029,CST-1368DR,5057,6582,13919,0.460,551
2021-11-29T09:25:20,42.805,6.029,CST-1368DR,5057,6583,13920,0.460,551
2021-11-29T09:28:21,42.805,6.029,CST-1368DR,5057,6583,13920,0.460,551
2021-11-29T09:31:23,42.805,6.029,CST-1368DR,5057,6583,13920,0.460,551
2021-11-29T09:34:25,42.805,6.029,CST-1368DR,5057,6583,13919,0.460,551
2021-11-29T09:37:26,42.805,6.029,CST-1368DR,5057,6580,13915,0.461,551
2021-11-29T09:40:28,42.805,6.029,CST-1368DR,5057,6582,13918,0.460,551
2021-11-29T09:43:29,42.805,6.029,CST-1368DR,5057,6582,13919,0.460,551
2021-11-29T09:46:31,42.805,6.029,CST-1368DR,5057,6582,13919,0.460,551
2021-11-29T09:49:33,42.805,6.029,CST-1368DR,5057,6582,13919,0.460,551
2021-11-29T09:52:34,42.805,6.029,CST-1368DR,5057,6582,13918,0.460,551
2021-11-29T09:55:36,42.805,6.029,CST-1368DR,5057,6582,13918,0.460,551
2021-11-29T09:58:37,42.805,6.029,CST-1368DR,5057,6582,13919,0.460,551
2021-11-29T10:01:39,42.805,6.029,CST-1368DR,5057,6582,13919,0.460,551
2021-11-29T10:04:40,42.805,6.029,CST-1368DR,5057,6582,13919,0.460,551
2021-11-29T10:07:42,42.805,6.029,CST-1368DR,5057,6583,13919,0.460,551
2021-11-29T10:10:44,42.805,6.029,CST-1368DR,5057,6582,13918,0.460,551
2021-11-29T10:13:45,42.805,6.029,CST-1368DR,5057,6580,13914,0.462,551
2021-11-29T10:16:47,42.805,6.029,CST-1368DR,5057,6583,13919,0.460,551
2021-11-29T10:19:48,42.805,6.029,CST-1368DR,5057,6582,13919,0.460,551
2021-11-29T10:22:50,42.805,6.029,CST-1368DR,5057,6582,13919,0.460,551
2021-11-29T10:25:51,42.805,6.029,CST-1368DR,5057,6582,13919,0.460,551
2021-11-29T10:28:53,42.805,6.029,CST-1368DR,5057,6582,13919,0.460,551
2021-11-29T10:31:55,42.805,6.029,CST-1368DR,5057,6582,13918,0.460,551
2021-11-29T10:34:56,42.805,6.029,CST-1368DR,5057,6582,13919,0.460,551
2021-11-29T10:37:58,42.805,6.029,CST-1368DR,5057,6579,13912,0.462,551
2021-11-29T10:40:59,42.805,6.029,CST-1368DR,5057,6582,13917,0.461,551
2021-11-29T10:44:01,42.805,6.029,CST-1368DR,5056,6582,13921,0.460,551
2021-11-29T10:47:03,42.805,6.029,CST-1368DR,5057,6582,13918,0.460,551
2021-11-29T10:50:04,42.805,6.029,CST-1368DR,5057,6581,13917,0.461,551
2021-11-29T10:53:06,42.805,6.029,CST-1368DR,5057,6581,13917,0.461,551
2021-11-29T10:56:07,42.805,6.029,CST-1368DR,5057,6581,13917,0.461,551
2021-11-29T10:59:09,42.805,6.029,CST-1368DR,5057,6581,13917,0.461,551
2021-11-29T11:02:10,42.805,6.029,CST-1368DR,5057,6582,13918,0.460,551
2021-11-29T11:05:12,42.805,6.029,CST-1368DR,5057,6582,13919,0.460,551
2021-11-29T11:08:14,42.805,6.029,CST-1368DR,5056,6581,13919,0.460,551
2021-11-29T11:11:15,42.805,6.029,CST-1368DR,5057,6581,13917,0.461,551
2021-11-29T11:14:17,42.805,6.029,CST-1368DR,5056,6582,13920,0.460,551
2021-11-29T11:17:18,42.805,6.029,CST-1368DR,5056,6581,13919,0.460,551
2021-11-29T11:20:20,42.805,6.029,CST-1368DR,5056,6582,13920,0.460,551
2021-11-29T11:23:22,42.805,6.029,CST-1368DR,5056,6581,13919,0.460,551
2021-11-29T11:26:23,42.805,6.029,CST-1368DR,5057,6582,13917,0.461,551
2021-11-29T11:29:25,42.805,6.029,CST-1368DR,5056,6582,13920,0.460,551
2021-11-29T11:32:26,42.805,6.029,CST-1368DR,5056,6582,13920,0.460,551
2021-11-29T11:35:28,42.805,6.029,CST-1368DR,5056,6580,13916,0.461,551
2021-11-29T11:38:29,42.805,6.029,CST-1368DR,5056,6582,13920,0.460,551
2021-11-29T11:41:31,42.805,6.029,CST-1368DR,5056,6582,13920,0.460,551
2021-11-29T11:44:33,42.805,6.029,CST-1368DR,5056,6582,13920,0.460,551
2021-11-29T11:47:34,42.805,6.029,CST-1368DR,5056,6582,13920,0.460,551
2021-11-29T11:50:36,42.805,6.029,CST-1368DR,5056,6582,13920,0.460,551
2021-11-29T11:53:37,42.805,6.029,CST-1368DR,5056,6582,13921,0.460,551
2021-11-29T11:56:39,42.805,6.029,CST-1368DR,5057,6581,13916,0.461,551
2021-11-29T11:59:40,42.805,6.029,CST-1368DR,5056,6582,13920,0.460,551
2021-11-29T12:02:42,42.805,6.029,CST-1368DR,5056,6582,13920,0.460,551
2021-11-29T12:05:44,42.805,6.029,CST-1368DR,5057,6581,13916,0.461,551
2021-11-29T12:08:45,42.805,6.029,CST-1368DR,5056,6581,13918,0.460,551
2021-11-29T12:11:47,42.805,6.029,CST-1368DR,5056,6581,13919,0.460,551
2021-11-29T12:14:48,42.805,6.029,CST-1368DR,5056,6582,13921,0.460,551
2021-11-29T12:17:50,42.805,6.029,CST-1368DR,5056,6581,13918,0.460,551
2021-11-29T12:20:52,42.805,6.029,CST-1368DR,5056,6578,13912,0.462,551
2021-11-29T12:23:53,42.805,6.029,CST-1368DR,5056,6582,13920,0.460,551
2021-11-29T12:26:55,42.805,6.029,CST-1368DR,5056,6582,13920,0.460,551
2021-11-29T12:29:56,42.805,6.029,CST-1368DR,5056,6582,13921,0.460,551
2021-11-29T12:32:58,42.805,6.029,CST-1368DR,5056,6582,13920,0.460,551
2021-11-29T12:35:59,42.805,6.029,CST-1368DR,5056,6582,13920,0.460,551
2021-11-29T12:39:01,42.805,6.029,CST-1368DR,5056,6581,13919,0.460,551
2021-11-29T12:42:03,42.805,6.029,CST-1368DR,5056,6582,13920,0.460,551
2021-11-29T12:45:04,42.805,6.029,CST-1368DR,5056,6581,13919,0.460,551
2021-11-29T12:48:06,42.805,6.029,CST-1368DR,5056,6581,13919,0.460,551
2021-11-29T12:51:07,42.805,6.029,CST-1368DR,5056,6581,13919,0.460,551
2021-11-29T12:54:09,42.805,6.029,CST-1368DR,5056,6582,13920,0.460,551
2021-11-29T12:57:11,42.805,6.029,CST-1368DR,5056,6581,13919,0.460,551
2021-11-29T13:00:12,42.805,6.029,CST-1368DR,5056,6581,13919,0.460,551
2021-11-29T13:03:14,42.805,6.029,CST-1368DR,5056,6580,13916,0.461,551
2021-11-29T13:06:15,42.805,6.029,CST-1368DR,5056,6579,13915,0.461,551
2021-11-29T13:09:17,42.805,6.029,CST-1368DR,5056,6581,13918,0.460,551
2021-11-29T13:12:18,42.805,6.029,CST-1368DR,5056,6581,13918,0.460,551
2021-11-29T13:15:20,42.805,6.029,CST-1368DR,5056,6581,13919,0.460,551
2021-11-29T13:18:22,42.805,6.029,CST-1368DR,5056,6581,13918,0.460,551
2021-11-29T13:21:23,42.805,6.029,CST-1368DR,5056,6582,13920,0.460,551
2021-11-29T13:24:25,42.805,6.029,CST-1368DR,5056,6580,13917,0.461,551
2021-11-29T13:27:26,42.805,6.029,CST-1368DR,5056,6579,13915,0.461,551
2021-11-29T13:30:28,42.805,6.029,CST-1368DR,5056,6580,13916,0.461,551
2021-11-29T13:33:29,42.805,6.029,CST-1368DR,5056,6580,13917,0.461,551
2021-11-29T13:36:31,42.805,6.029,CST-1368DR,5056,6580,13917,0.461,551
2021-11-29T13:39:33,42.805,6.029,CST-1368DR,5056,6581,13919,0.460,551
2021-11-29T13:42:34,42.805,6.029,CST-1368DR,5056,6580,13917,0.461,551
2021-11-29T13:45:36,42.805,6.029,CST-1368DR,5056,6580,13916,0.461,551
2021-11-29T13:48:37,42.805,6.029,CST-1368DR,5056,6580,13916,0.461,551
2021-11-29T13:51:39,42.805,6.029,CST-1368DR,5056,6580,13917,0.461,551
2021-11-29T13:54:41,42.805,6.029,CST-1368DR,5056,6580,13917,0.461,551
2021-11-29T13:57:42,42.805,6.029,CST-1368DR,5056,6580,13917,0.461,551
2021-11-29T14:00:44,42.805,6.029,CST-1368DR,5056,6581,13918,0.460,551
2021-11-29T14:03:45,42.805,6.029,CST-1368DR,5056,6580,13917,0.461,551
2021-11-29T14:06:47,42.805,6.029,CST-1368DR,5056,6580,13916,0.461,551
2021-11-29T14:09:48,42.805,6.029,CST-1368DR,5056,6580,13916,0.461,551
2021-11-29T14:12:50,42.805,6.029,CST-1368DR,5056,6580,13916,0.461,551
2021-11-29T14:15:52,42.805,6.029,CST-1368DR,5056,6581,13918,0.460,551
2021-11-29T14:18:53,42.805,6.029,CST-1368DR,5056,6580,13916,0.461,551
2021-11-29T14:21:55,42.805,6.029,CST-1368DR,5056,6581,13919,0.460,551
2021-11-29T14:24:56,42.805,6.029,CST-1368DR,5056,6579,13915,0.461,551
2021-11-29T14:27:58,42.805,6.029,CST-1368DR,5056,6580,13917,0.461,551
2021-11-29T14:31:00,42.805,6.029,CST-1368DR,5056,6579,13915,0.461,551
2021-11-29T14:34:01,42.805,6.029,CST-1368DR,5056,6580,13916,0.461,551
2021-11-29T14:37:03,42.805,6.029,CST-1368DR,5056,6579,13914,0.462,551
2021-11-29T14:40:04,42.805,6.029,CST-1368DR,5056,6580,13916,0.461,551
2021-11-29T14:43:06,42.805,6.029,CST-1368DR,5056,6579,13915,0.461,551
2021-11-29T14:46:07,42.805,6.029,CST-1368DR,5056,6580,13916,0.461,551
2021-11-29T14:49:09,42.805,6.029,CST-1368DR,5056,6578,13913,0.462,551
2021-11-29T14:52:11,42.805,6.029,CST-1368DR,5056,6580,13916,0.461,551
2021-11-29T14:55:12,42.805,6.029,CST-1368DR,5056,6580,13916,0.461,551
2021-11-29T14:58:14,42.805,6.029,CST-1368DR,5056,6580,13917,0.461,551
2021-11-29T15:01:15,42.805,6.029,CST-1368DR,5056,6580,13917,0.461,551
2021-11-29T15:04:17,42.805,6.029,CST-1368DR,5056,6580,13916,0.461,551
2021-11-29T15:07:18,42.805,6.029,CST-1368DR,5056,6580,13916,0.461,551
2021-11-29T15:10:20,42.805,6.029,CST-1368DR,5056,6579,13915,0.461,551
2021-11-29T15:13:22,42.805,6.029,CST-1368DR,5056,6580,13917,0.461,551
2021-11-29T15:16:23,42.805,6.029,CST-1368DR,5056,6578,13911,0.462,551
2021-11-29T15:19:25,42.805,6.029,CST-1368DR,5056,6580,13916,0.461,551
2021-11-29T15:22:26,42.805,6.029,CST-1368DR,5056,6580,13916,0.461,551
2021-11-29T15:25:28,42.805,6.029,CST-1368DR,5056,6580,13916,0.461,551
2021-11-29T15:28:30,42.805,6.029,CST-1368DR,5056,6579,13915,0.461,551
2021-11-29T15:31:31,42.805,6.029,CST-1368DR,5056,6580,13916,0.461,551
2021-11-29T15:34:33,42.805,6.029,CST-1368DR,5056,6580,13916,0.461,551
2021-11-29T15:37:34,42.805,6.029,CST-1368DR,5056,6580,13916,0.461,551
2021-11-29T15:40:36,42.805,6.029,CST-1368DR,5056,6580,13916,0.461,551
2021-11-29T15:43:37,42.805,6.029,CST-1368DR,5056,6580,13916,0.461,551
2021-11-29T15:46:39,42.805,6.029,CST-1368DR,5056,6581,13919,0.460,551
2021-11-29T15:49:41,42.805,6.029,CST-1368DR,5056,6579,13913,0.462,551
2021-11-29T15:52:42,42.805,6.029,CST-1368DR,5056,6579,13915,0.461,551
2021-11-29T15:55:44,42.805,6.029,CST-1368DR,5056,6580,13916,0.461,551
2021-11-29T15:58:45,42.805,6.029,CST-1368DR,5056,6580,13917,0.461,551
2021-11-29T16:01:47,42.805,6.029,CST-1368DR,5056,6579,13915,0.461,551
2021-11-29T16:04:49,42.805,6.029,CST-1368DR,5056,6580,13917,0.461,551
2021-11-29T16:07:50,42.805,6.029,CST-1368DR,5056,6580,13917,0.461,551
2021-11-29T16:10:52,42.805,6.029,CST-1368DR,5056,6579,13914,0.462,551
2021-11-29T16:13:53,42.805,6.029,CST-1368DR,5056,6580,13917,0.461,551
2021-11-29T16:16:55,42.805,6.029,CST-1368DR,5056,6578,13913,0.462,551
2021-11-29T16:19:56,42.805,6.029,CST-1368DR,5056,6579,13913,0.462,551
2021-11-29T16:22:58,42.805,6.029,CST-1368DR,5056,6579,13913,0.462,551
2021-11-29T16:26:00,42.805,6.029,CST-1368DR,5056,6580,13916,0.461,551
2021-11-29T16:29:01,42.805,6.029,CST-1368DR,5056,6579,13915,0.461,551
2021-11-29T16:32:03,42.805,6.029,CST-1368DR,5056,6580,13917,0.461,551
2021-11-29T16:35:04,42.805,6.029,CST-1368DR,5056,6580,13916,0.461,551
2021-11-29T16:38:06,42.805,6.029,CST-1368DR,5056,6579,13914,0.462,551
2021-11-29T16:41:07,42.805,6.029,CST-1368DR,5056,6580,13916,0.461,551
2021-11-29T16:44:09,42.805,6.029,CST-1368DR,5056,6579,13915,0.461,551
2021-11-29T16:47:11,42.805,6.029,CST-1368DR,5056,6579,13915,0.461,551
2021-11-29T16:50:12,42.805,6.029,CST-1368DR,5056,6579,13915,0.461,551
2021-11-29T16:53:14,42.805,6.029,CST-1368DR,5056,6579,13914,0.462,551